Weather Roundup
Issued by NWS

Home | Current Version | Previous Version | Text Only | Print | Product List | Glossary On
Versions: 1 2 3 4 5 6 7 8 9 10 11 12 13 14 15 16 17 18 19 20 21 22 23 24 25 26 27 28 29 30 31 32 33 34 35 36 37 38 39 40 41 42 43 44 45 46 47 48 49 50
000
NZUS93 KARX 030910
HRRWXR

CURRENT HOURLY OBSERVATIONS ACROSS
MUCH OF THE UPPER MISSISSIPPI VALLEY
NATIONAL WEATHER SERVICE LA CROSSE WI
400 AM CDT SUN MAY 03 2015


...SOUTHEAST MINNESOTA...


CITY           SKY/WX    TMP DP  RH WIND       PRES   REMARKS
ROCHESTER      PTCLDY    54  49  83 S12       29.82F
ROCHESTER/MAYO FAIR      56  51  83 SE8       29.81F
WINONA         PTCLDY    59  50  72 SE3       29.83F
AUSTIN         MOCLDY    55  48  76 S7        29.80F
ALBERT LEA     MOCLDY    55  50  82 S10       29.79F
DODGE CENTER   PTCLDY    55  50  82 S13       29.80F
PRESTON        PTCLDY    55  49  80 S12       29.83F
OWATONNA       PTCLDY    57  48  72 SE16      29.77F
FARIBAULT      CLEAR     57  50  77 S9        29.77F
$$

...ELSEWHERE IN MINNESOTA...


CITY           SKY/WX    TMP DP  RH WIND       PRES   REMARKS
MINNEAPOLIS    PTCLDY    60  51  72 S7        29.77R
INTNL FALLS    PTCLDY    49  44  83 CALM      29.63R
DULUTH         CLOUDY    60  47  61 SW13      29.71R
RED WING       CLEAR     59  48  67 S6        29.79S
REDWOOD FALLS  CLOUDY    55  50  83 SE8       29.73F
MANKATO        CLEAR     55  46  71 S13       29.75F
WORTHINGTON    CLOUDY    55  48  76 S12       29.72S
FAIRMONT       CLOUDY    54  46  76 S9        29.75F
$$

...SOUTHWEST WISCONSIN...


CITY           SKY/WX    TMP DP  RH WIND       PRES   REMARKS
LA CROSSE      CLEAR     60  52  74 S5        29.84S
PRAIRIE DU CHI MOCLDY    62  47  59 SE7       29.86F
BOSCOBEL       MOCLDY    57  50  77 VRB3      29.88F
LONE ROCK      CLOUDY    60  49  66 CALM      29.89F
PLATTEVILLE    MOCLDY    57  50  76 S9        29.91S
FORT MC COY    CLEAR     50  46  85 CALM      29.87S
CAMP DOUGLAS   CLEAR     58  53  81 S8        29.86S
VIROQUA        FAIR      57  50  78 S8        29.87F
WIS DELLS      NOT AVBL
$$

...ELSEWHERE IN WISCONSIN...


CITY           SKY/WX    TMP DP  RH WIND       PRES   REMARKS
MILWAUKEE      MOCLDY    59  40  49 SW8       29.93F
MADISON        CLOUDY    60  48  64 S8        29.91F
GREEN BAY      CLEAR     57  47  69 SW7       29.88S
EAU CLAIRE     CLEAR     60  48  64 S10       29.79F
BLACK RVR FLS  FAIR      47  46  96 CALM      29.84F
MEDFORD        CLEAR     55  48  77 S10       29.83S
WAUSAU         CLEAR     58  49  72 S8        29.83F
WIS RAPIDS     CLEAR     55  46  71 S5        29.87F
MARSHFIELD     CLEAR     54  48  80 S9        29.85S
RICE LAKE      CLEAR     58  48  68 S6        29.81R
$$

...NORTHEAST IOWA...


CITY           SKY/WX    TMP DP  RH WIND       PRES   REMARKS
DECORAH        MOCLDY    59  50  72 S10       29.84F
MASON CITY     CLOUDY    55  50  83 S10       29.81F
CHARLES CITY   CLOUDY    57  50  77 S17       29.82F
OELWEIN        MOCLDY    57  50  77 S15       29.86F
$$

...ELSEWHERE IN IOWA...


CITY           SKY/WX    TMP DP  RH WIND       PRES   REMARKS
DES MOINES     CLOUDY    61  53  75 S16       29.81F
IOWA CITY      CLOUDY    58  52  80 S10       29.91F
FORT DODGE     CLOUDY    57  52  82 SE6       29.77S
$$

...NORTHERN ILLINOIS...


CITY           SKY/WX    TMP DP  RH WIND       PRES   REMARKS
CHICAGO-OHARE  CLOUDY    59  42  53 S6        29.96S
CHICAGO-MIDWAY CLOUDY    62  42  47 S6        29.98R
MOLINE         MOCLDY    63  45  51 S10       29.92S
ROCKFORD       CLOUDY    58  43  57 S5        29.96F
PEORIA         CLOUDY    62  47  57 S8        29.97F
$$

NOTE: "FAIR" INDICATES FEW OR NO CLOUDS BELOW 12,000 FEET WITH NO
SIGNIFICANT WEATHER AND/OR OBSTRUCTIONS TO VISIBILITY. WIND
SPEEDS ARE IN MILES-PER-HOUR.



USA.gov is the U.S. government's official web portal to all federal, state and local government web resources and services.